West Bend, WI

3:12 PM CDT on October 20, 2019 (GMT -0500)
West Bend Municipal

Weather History for KETB - September, 2019

Change the Weather History Date:

Sunday, September 22, 2019

  Actual Average Record
Temperature  
Mean Temperature 66 °F -  
Max Temperature 71 °F 66 °F 91 °F (1937)
Min Temperature 62 °F 46 °F 28 °F (1974)
Cooling Degree Days 2    
Growing Degree Days 16 (Base 50)    
Moisture  
Dew Point 66 °F    
Average Humidity 97    
Maximum Humidity 100    
Minimum Humidity 88    
Precipitation  
Precipitation 1.13 in - - ()
Sea Level Pressure  
Sea Level Pressure 29.85 in    
Wind  
Wind Speed 8 mph (WSW)    
Max Wind Speed 15 mph    
Max Gust Speed 21 mph    
Visibility 9 miles    
Events Rain    
Averages and records for this station are not official NWS values.
T = Trace of Precipitation, MM = Missing Value Source: NWS Daily Summary

Daily Weather History Graph

Daily Weather History Graph

Search for Another Location

Airport or City:

Astronomy

Sep. 22, 2019 Rise Set
Actual Time 6:39 AM CDT 6:50 PM CDT
Civil Twilight 6:11 AM CDT 7:18 PM CDT
Nautical Twilight 5:37 AM CDT 7:52 PM CDT
Astronomical Twilight 5:03 AM CDT 8:26 PM CDT
Moon No Moon Rise 2:56 PM CDT (9/22)
Length of Visible Light 13h 07m
Length of Day
12h 10m
Last Quarter, 44% of the Moon is Illuminated
Sep 22
Last Quarter
Sep 28
New
Oct 5
First Quarter
Oct 13
Full
Oct 21
Last Quarter

Hourly Weather History & Observations

Time (CDT) Temp. Dew Point Humidity Pressure Visibility Wind Dir Wind Speed Gust Speed Precip Events Conditions
12:15 AM 71.6 °F 69.8 °F 94% 29.93 in 10.0 mi SW 12.7 mph 17.3 mph N/A   Overcast
12:35 AM 71.6 °F 69.8 °F 94% 29.93 in 10.0 mi SW 15.0 mph 18.4 mph N/A   Overcast
12:55 AM 71.6 °F 69.8 °F 94% 29.94 in 10.0 mi SW 11.5 mph 17.3 mph N/A   Overcast
1:15 AM 71.6 °F 69.8 °F 94% 29.94 in 10.0 mi SW 10.4 mph 17.3 mph N/A   Overcast
1:35 AM 71.6 °F 69.8 °F 94% 29.93 in 10.0 mi SW 15.0 mph 20.7 mph N/A   Overcast
1:55 AM 71.6 °F 69.8 °F 94% 29.92 in 10.0 mi SW 12.7 mph 18.4 mph N/A   Overcast
2:15 AM 71.6 °F 69.8 °F 94% 29.92 in 10.0 mi SW 11.5 mph - N/A   Overcast
2:35 AM 71.6 °F 69.8 °F 94% 29.91 in 10.0 mi SW 10.4 mph - N/A   Overcast
2:55 AM 71.6 °F 69.8 °F 94% 29.90 in 10.0 mi SSW 9.2 mph - N/A   Mostly Cloudy
3:15 AM 71.6 °F 69.8 °F 94% 29.90 in 10.0 mi SW 8.1 mph - N/A   Mostly Cloudy
3:35 AM 71.6 °F 69.8 °F 94% 29.90 in 10.0 mi SW 8.1 mph - N/A   Overcast
3:55 AM 71.6 °F 69.8 °F 94% 29.89 in 10.0 mi SSW 9.2 mph - N/A   Overcast
4:15 AM 71.6 °F 69.8 °F 94% 29.89 in 10.0 mi SSW 9.2 mph - N/A   Overcast
4:35 AM 69.8 °F 69.8 °F 100% 29.89 in 10.0 mi SSW 6.9 mph - N/A   Overcast
4:55 AM 71.6 °F 69.8 °F 94% 29.88 in 10.0 mi SSW 6.9 mph - N/A   Overcast
5:15 AM 71.6 °F 69.8 °F 94% 29.87 in 10.0 mi SSW 6.9 mph - N/A   Overcast
5:35 AM 71.6 °F 69.8 °F 94% 29.86 in 10.0 mi South 8.1 mph - N/A   Overcast
5:55 AM 71.6 °F 69.8 °F 94% 29.87 in 10.0 mi South 9.2 mph - N/A Rain Rain
6:15 AM 69.8 °F 69.8 °F 100% 29.87 in 10.0 mi SSW 4.6 mph - 0.03 in Rain Light Rain
6:35 AM 69.8 °F 69.8 °F 100% 29.87 in 7.0 mi SSW 9.2 mph - 0.03 in   Overcast
6:55 AM 69.8 °F 69.8 °F 100% 29.87 in 10.0 mi SSW 6.9 mph - 0.03 in Rain Light Rain
7:15 AM 69.8 °F 69.8 °F 100% 29.86 in 10.0 mi SSW 8.1 mph - 0.01 in Rain Light Rain
7:35 AM 69.8 °F 69.8 °F 100% 29.86 in 10.0 mi SSW 9.2 mph - 0.02 in Rain Light Rain
7:55 AM 69.8 °F 69.8 °F 100% 29.85 in 7.0 mi SSW 10.4 mph - 0.02 in Rain Rain
8:15 AM 69.8 °F 69.8 °F 100% 29.84 in 10.0 mi SW 6.9 mph - N/A   Drizzle
8:35 AM 68.0 °F 68.0 °F 100% 29.85 in 2.5 mi West 9.2 mph - 0.16 in Rain Heavy Rain
8:55 AM 66.2 °F 64.4 °F 94% 29.85 in 5.0 mi West 9.2 mph 17.3 mph 0.18 in Rain Rain
9:15 AM 64.4 °F 64.4 °F 100% 29.83 in 7.0 mi Calm Calm - 0.06 in Rain Light Rain
9:35 AM 64.4 °F 64.4 °F 100% 29.84 in 1.8 mi WSW 4.6 mph - 0.12 in Rain Light Rain
9:55 AM 64.4 °F 64.4 °F 100% 29.83 in 10.0 mi Calm Calm - 0.12 in Rain Rain
10:15 AM 62.6 °F 62.6 °F 100% 29.83 in 2.5 mi WNW 10.4 mph - 0.14 in Rain Heavy Rain
10:35 AM 62.6 °F 62.6 °F 100% 29.84 in 1.8 mi WNW 9.2 mph - 0.46 in Rain Heavy Rain
10:55 AM 62.6 °F 62.6 °F 100% 29.83 in 5.0 mi NW 4.6 mph - 0.57 in Rain Rain
11:15 AM 62.6 °F 62.6 °F 100% 29.83 in 10.0 mi Calm Calm - N/A Rain Rain
11:35 AM 62.6 °F 62.6 °F 100% 29.84 in 10.0 mi WNW 3.5 mph - 0.03 in Rain Rain
11:55 AM 64.4 °F 64.4 °F 100% 29.83 in 2.5 mi Calm Calm - 0.18 in Rain Rain
12:15 PM 64.4 °F 64.4 °F 100% 29.83 in 10.0 mi Calm Calm - N/A Rain Rain
12:35 PM 64.4 °F 64.4 °F 100% 29.82 in 10.0 mi Calm Calm - N/A   Light Drizzle
12:55 PM 66.2 °F 64.4 °F 94% 29.82 in 10.0 mi Calm Calm - 0.01 in   Mostly Cloudy
1:15 PM 68.0 °F 66.2 °F 94% 29.82 in 10.0 mi Calm Calm - N/A   Mostly Cloudy
1:35 PM 68.0 °F 66.2 °F 94% 29.83 in 10.0 mi WSW 5.8 mph - N/A   Mostly Cloudy
1:55 PM 68.0 °F 66.2 °F 94% 29.82 in 10.0 mi West 5.8 mph - N/A   Overcast
2:15 PM 68.0 °F 66.2 °F 94% 29.82 in 10.0 mi WSW 5.8 mph - N/A   Overcast
2:35 PM 68.0 °F 66.2 °F 94% 29.81 in 10.0 mi WSW 6.9 mph - N/A   Overcast
2:55 PM 68.0 °F 64.4 °F 88% 29.82 in 10.0 mi WSW 5.8 mph - N/A   Overcast
3:15 PM 68.0 °F 66.2 °F 94% 29.82 in 10.0 mi WSW 6.9 mph - N/A Rain Light Rain
3:35 PM 68.0 °F 66.2 °F 94% 29.81 in 7.0 mi WSW 3.5 mph - N/A   Drizzle
3:55 PM 68.0 °F 64.4 °F 88% 29.81 in 7.0 mi WSW 6.9 mph - N/A Rain Rain
4:15 PM 66.2 °F 64.4 °F 94% 29.81 in 10.0 mi WSW 5.8 mph - 0.01 in Rain Light Rain
4:35 PM 66.2 °F 64.4 °F 94% 29.80 in 10.0 mi West 3.5 mph - 0.01 in Rain Light Rain
4:55 PM 64.4 °F 64.4 °F 100% 29.79 in 10.0 mi West 3.5 mph - 0.02 in Rain Light Rain
5:15 PM 66.2 °F 64.4 °F 94% 29.78 in 10.0 mi Calm Calm - N/A   Scattered Clouds
5:35 PM 66.2 °F 64.4 °F 94% 29.79 in 10.0 mi Calm Calm - N/A   Mostly Cloudy
5:55 PM 64.4 °F 64.4 °F 100% 29.80 in 10.0 mi Calm Calm - N/A   Overcast
6:15 PM 64.4 °F 64.4 °F 100% 29.80 in 10.0 mi West 3.5 mph - N/A   Overcast
6:35 PM 64.4 °F 64.4 °F 100% 29.80 in 10.0 mi SW 4.6 mph - N/A   Overcast
6:55 PM 64.4 °F 64.4 °F 100% 29.80 in 7.0 mi Calm Calm - N/A Rain Rain
7:15 PM 64.4 °F 64.4 °F 100% 29.80 in 10.0 mi WSW 4.6 mph - N/A   Overcast
7:35 PM 64.4 °F 64.4 °F 100% 29.81 in 10.0 mi WSW 4.6 mph - N/A   Overcast
7:55 PM 64.4 °F 64.4 °F 100% 29.82 in 10.0 mi NNW 9.2 mph - N/A   Overcast
8:15 PM 64.4 °F 62.6 °F 94% 29.82 in 10.0 mi Calm Calm - N/A   Overcast
8:35 PM 64.4 °F 62.6 °F 94% 29.82 in 10.0 mi Calm Calm - N/A   Overcast
8:55 PM 64.4 °F 64.4 °F 100% 29.82 in 10.0 mi West 8.1 mph - N/A   Mostly Cloudy
9:15 PM 64.4 °F 62.6 °F 94% 29.82 in 10.0 mi West 4.6 mph - N/A   Scattered Clouds
9:35 PM 62.6 °F 62.6 °F 100% 29.82 in 10.0 mi West 3.5 mph - N/A   Clear
9:55 PM 62.6 °F 62.6 °F 100% 29.83 in 10.0 mi West 3.5 mph - N/A   Clear
10:15 PM 62.6 °F 62.6 °F 100% 29.84 in 10.0 mi West 4.6 mph - N/A   Clear
10:35 PM 62.6 °F 62.6 °F 100% 29.83 in 10.0 mi West 4.6 mph - N/A   Mostly Cloudy
10:55 PM 62.6 °F 62.6 °F 100% 29.83 in 10.0 mi WNW 4.6 mph - N/A   Overcast
11:15 PM 62.6 °F 62.6 °F 100% 29.83 in 10.0 mi West 6.9 mph - N/A   Overcast
11:35 PM 64.4 °F 62.6 °F 94% 29.84 in 10.0 mi WNW 12.7 mph 18.4 mph N/A   Overcast
11:55 PM 62.6 °F 60.8 °F 94% 29.85 in 10.0 mi WNW 11.5 mph 19.6 mph N/A   Overcast